Regional Weather Roundup
Issued by NWS

Home | Current Version | Previous Version | Graphics & Text | Print | Product List | Glossary On
Versions: 1 2 3 4 5 6 7 8 9 10 11 12 13 14 15 16 17 18 19 20 21 22 23 24 25 26 27 28 29 30 31 32 33 34 35 36 37 38 39 40 41 42 43 44 45 46 47 48 49 50
000
ASUS45 KABQ 240010
RWRNM
WEATHER ROUNDUP FOR NEW MEXICO
NATIONAL WEATHER SERVICE ALBUQUERQUE NM
600 PM MDT WED APR 23 2014

NOTE: "FAIR" MEANS FEW OR NO CLOUDS BELOW 12,000 FEET AGL WITH NO
       SIGNIFICANT WEATHER OR OBSTRUCTIONS TO VISION.

      THIS PRODUCT IS RELEASED AS TWO VERSIONS.  ONE VERSION NEAR
      THE TOP OF THE HOUR CONTAINING PRELIMINARY DATA FROM ALBUQUERQUE
      AND OTHER STATIONS.  A FINAL VERSION WITH ADDITIONAL DATA IS
      ISSUED ABOUT 10 MINUTES AFTER THE HOUR.

NMZ501-503-504-510>518-240100-
NORTHWEST PLATEAU/NORTHCENTRAL MOUNTAINS

CITY           SKY/WX    TMP DP  RH WIND       PRES   REMARKS
FARMINGTON     MOSUNNY   61   8  12 W21G30    29.86R
6HR MIN TEMP:  60; 6HR MAX TEMP:  66;

LOS ALAMOS     CLOUDY    54  22  28 W14G28    29.87F
SANTA FE       CLOUDY    61  17  18 NW16      29.82R
6HR MIN TEMP:  61; 6HR MAX TEMP:  73;

TAOS           CLOUDY    55  19  24 W24G33    29.86R
ANGEL FIRE     CLOUDY    50  22  32 SW9G22    29.87F

$$
NMZ402-403-502-505>509-240100-
WESTCENTRAL MOUNTAINS/SOUTHWEST MOUNTAINS

CITY           SKY/WX    TMP DP  RH WIND       PRES   REMARKS
GALLUP         PTSUNNY   61   6  11 W16G33    29.92R
6HR MIN TEMP:  59; 6HR MAX TEMP:  66;

GRANTS         PTSUNNY   60   9  13 W24G33    29.91R
SILVER CITY    SUNNY     73  19  13 W30G40    29.87F

$$
NMZ407-409-411-412-240100-
SOUTHERN DESERTS

CITY           SKY/WX    TMP DP  RH WIND       PRES   REMARKS
LORDSBURG      FAIR      77  23  13 W26G35    29.83R
DEMING         SUNNY     79  22  12 W30G38    29.79R
6HR MIN TEMP:  76; 6HR MAX TEMP:  83;

LAS CRUCES     SUNNY     80  19  10 W26G35    29.80R
HOLLOMAN AFB   SUNNY     82  13   7 W25G31    29.74S
ALAMOGORDO     SUNNY     81  16   9 W21G29    29.76S
T OR C         SUNNY     77  17  10 SW23G30   29.77R
6HR MIN TEMP:  75; 6HR MAX TEMP:  81;


$$
NMZ519>523-240100-
CENTRAL VALLEYS/CENTRAL HIGHLANDS

CITY           SKY/WX    TMP DP  RH WIND       PRES   REMARKS
ALBUQUERQUE    CLOUDY    69  11  10 W30G39    29.78R
6HR MIN TEMP:  69; 6HR MAX TEMP:  77;

DOUBLE EAGLE   PTSUNNY   64  19  17 NW29G38   29.81R
MORIARTY ARPT  FAIR      63  21  20 W26G32    29.83S
6HR MIN TEMP:  62; 6HR MAX TEMP:  74;

CLINES CORNERS CLOUDY    58  23  26 W33G52    29.81R
6HR MIN TEMP:  58; 6HR MAX TEMP:  70;

BELEN          FAIR      71  19  14 W26G36    29.77R
6HR MIN TEMP:  71; 6HR MAX TEMP:  77;

SOCORRO        FAIR      76  15  10 SW17G29   29.74R
6HR MIN TEMP:  75; 6HR MAX TEMP:  85;


$$
NMZ524>526-539-540-240100-
SOUTHCENTRAL MOUNTAINS

CITY           SKY/WX    TMP DP  RH WIND       PRES   REMARKS
RUIDOSO        SUNNY     66  12  12 SW31G48   29.84F

$$
NMZ527>531-240100-
NORTHEAST HIGHLANDS/NORTHEAST PLAINS

CITY           SKY/WX    TMP DP  RH WIND       PRES   REMARKS
LAS VEGAS      PTSUNNY   60  21  22 W24G41    29.80R
6HR MIN TEMP:  60; 6HR MAX TEMP:  69;

RATON          PTSUNNY   67  20  16 W24G31    29.69R
6HR MIN TEMP:  66; 6HR MAX TEMP:  75;

CLAYTON        SUNNY     78  12   8 SW28G38   29.58F
6HR MIN TEMP:  77; 6HR MAX TEMP:  82;


$$
NMZ532>537-240100-
EASTCENTRAL PLAINS

CITY           SKY/WX    TMP DP  RH WIND       PRES   REMARKS
TUCUMCARI      SUNNY     85  16   7 W21G31    29.57F
6HR MIN TEMP:  80; 6HR MAX TEMP:  88;

CANNON AFB     SUNNY     83  10   6 W21G32    29.64F
6HR MIN TEMP:  79; 6HR MAX TEMP:  85;

CLOVIS AIRPORT MOSUNNY   82  21  10 SW21G31   29.66S

$$
NMZ028-029-538-240100-
SOUTHEAST PLAINS

CITY           SKY/WX    TMP DP  RH WIND       PRES   REMARKS
ROSWELL        SUNNY     87  11   6 SW22G30   29.62S
6HR MIN TEMP:  84; 6HR MAX TEMP:  90;

ARTESIA        SUNNY     84  18   8 W26G39    29.68S
CARLSBAD       MOSUNNY   87  15   7 W17G30    29.67F
6HR MIN TEMP:  84; 6HR MAX TEMP:  90;

HOBBS          PTSUNNY   84  16   8 SW24G36   29.70F


$$



USA.gov is the U.S. government's official web portal to all federal, state and local government web resources and services.